Regional Weather Roundup
Issued by NWS

Home | Current Version | Previous Version | Graphics & Text | Print | Product List | Glossary Off
Versions: 1 2 3 4 5 6 7 8 9 10 11 12 13 14 15 16 17 18 19 20 21 22 23 24 25 26 27 28 29 30 31 32 33 34 35 36 37 38 39 40 41 42 43 44 45 46 47 48 49 50

000
ASUS43 KTOP 181408
RWRKS

WEATHER ROUNDUP FOR KANSAS
NATIONAL WEATHER SERVICE GOODLAND KS
900 AM CDT FRI APR 18 2014

NOTE:  "FAIR" INDICATES FEW OR NO CLOUDS BELOW 12,000 FEET WITH NO
SIGNIFICANT WEATHER AND/OR OBSTRUCTIONS TO VISIBILITY.

KSZ001>006-013>018-027>032-041>047-181500-
NORTHWEST KANSAS

CITY           SKY/WX    TMP DP  RH WIND       PRES   REMARKS
GOODLAND       SUNNY     42  36  79 S20       30.07S
HAYS           SUNNY     43  36  75 S8        30.20S
HILL CITY      SUNNY     47  40  76 S10       30.16S
RUSSELL        SUNNY     46  36  68 S14       30.20S
$$

KSZ061>065-074>080-084>089-181500-
SOUTHWEST KANSAS

CITY           SKY/WX    TMP DP  RH WIND       PRES   REMARKS
DODGE CITY     SUNNY     46  40  79 S15       30.19S HAZE
ELKHART          N/A     42  31  65 S13         N/A
GARDEN CITY    SUNNY     45  41  86 S16       30.16S FOG
GREAT BEND     SUNNY     45  36  70 S10       30.22S
LIBERAL        SUNNY     43  36  75 S13       30.20S
PRATT          SUNNY     45  37  76 S9        30.25S
$$

KSZ066>073-081>083-090>101-181500-
SOUTHEAST KANSAS

CITY           SKY/WX    TMP DP  RH WIND       PRES   REMARKS
CHANUTE        SUNNY     47  39  74 E5        30.31S
COFFEYVILLE    SUNNY     45  41  86 N3        30.30F FOG
HUTCHINSON     SUNNY     43  37  79 S9        30.28R HAZE
MEDICINE LODGE   N/A     42  38  85 SE7       30.26F
NEWTON         SUNNY     45  34  65 SE8       30.31F
PARSONS        SUNNY     48  41  76 E3        30.31S
WICHITA INTL   MOSUNNY   44  37  76 SE7       30.29S HAZE
WICHITA JABRA  SUNNY     44  38  79 S6        30.29S HAZE
WICHITA MCCONL SUNNY     44  43  97 S3        30.29S
WINFIELD       SUNNY     46  39  76 SE3       30.30S
$$

KSZ007>012-019>026-033>040-048>060-102>105-181500-
NORTHEAST KANSAS

CITY           SKY/WX    TMP DP  RH WIND       PRES   REMARKS
CONCORDIA      SUNNY     47  37  68 S13       30.24F HAZE
EMPORIA        SUNNY     43  39  86 SE6       30.30S FOG
LAWRENCE       SUNNY     43  38  82 CALM      30.33S HAZE
MANHATTAN      MOSUNNY   39  34  82 CALM      30.30F HAZE
OLATHE IND     SUNNY     45  38  76 CALM      30.32S
OLATHE EXE     SUNNY     45  37  73 NE5       30.31S
SALINA         SUNNY     44  36  73 SE8       30.28S HAZE
TOPEKA BILLARD SUNNY     41  36  82 CALM      30.34R HAZE
TOPEKA FORBES  SUNNY     43  37  79 CALM      30.32R HAZE
$$



USA.gov is the U.S. government's official web portal to all federal, state and local government web resources and services.